STARLINK-5979, 56345

Orbit data source: Space-Track

STARLINK-5979, 56345 is a payload satellite owned by SpaceX/Seattle (US) in SSO that was launched on Thu, 27 Apr 2023 UTC via an FALCON 9 launch vehicle from the Air Force Western Test Range (AFWTR). Payload-class satellites include a variety of spacecraft equipped with specific instruments for various scientific and technological missions. These include communications satellites like Starlink; space stations such as the ISS; scientific satellites like the Hubble; Earth observation satellites from companies like Planet Labs, Umbra, and HawkEye 360; GPS; miniature CubeSats for education and research; and military/defense satellites.

Loading next visibility...
Identifier
56345, 2023-058AE
Orbit
SSO
Country
Flag of USUS
Related business
Manufacturer
SpaceX/Seattle
Mission
Operational Commercial Communications
Bus & Motor
STARLINK, Unknown motor
Mass
300 kg wet, ~260 kg dry
Launch date (UTC)
2023-04-27 (3 years ago)
Launch vehicle
FALCON 9
Launch site
Air Force Western Test Range (AFWTR)
Object type
Payload
Rocket body
Debris
Shape & HBR
Box + 1 Pan, 10.1 m
Radar Cross Section
11.087 m², Large (>1 m²)

Expand to show TLE details & history
Last TLE update: 3 days ago

TLE from 3 days ago
0 STARLINK-5979
1 56345U 23058AE  26170.91980952  .00000520  00000-0  39985-4 0  9995
2 56345  97.3375 169.7560 0002088  80.6592 279.4872 15.05650323173506
Epoch: 2026-06-19T22:04Z
TLE epoch observation values (Epoch: 2026-06-19T22:04:31.542Z)
Latitude
0.00002°
Longitude
-69.5173°
Altitude
552.345 km
Speed
7.586 km/s
True Right ascension
11h 19m 01s
True Declination
0° 00' 00"
Sunlit
Object was in daylight at epoch
Visualization orbit readout
Latitude
Unknown
Longitude
Unknown
Altitude
Unknown
Speed
Unknown
Apparent Right ascension
Unknown
Apparent Declination
Unknown
Sunlit
N/A
Visualization observer readout
Local Sidereal Time
21:28:51
Azimuth
Unknown
Elevation
Unknown
Doppler factor
Unknown
Orbital elements
Apogee altitude
547.938 km
Perigee altitude
545.046 km
Semi-major axis
6,924.629 km
Eccentricity
0.00021
Inclination
97.3375°
RAAN
169.756°
Arg. of periapsis
80.6592°
True anomaly
279.4636°
Mean anomaly
279.4872°
Eccentric anomaly
279.4754°
Mean motion
3.76659 °/min
Orbital period
95.58 mins
BSTAR
0.000039985
Loading maneuver chart data...
Computing Atmospheric mass density...
Loading historical data...
Loading historical data...
Loading historical data...
Loading historical data...
Loading historical data...
Loading historical data...
Loading historical data...

Documentation

Showing up to 5 results
|